Elkton, VA (22827)

4:06 AM EST on February 07, 2016 (GMT -0500)
Whispering Pines | | Change Station
CLOSE
Current Station
Personal Weather Station
Location: Elkton, VA
Elevation: 1026 ft
Nearby Weather Stations

Elev 1026 ft 38.41 °N, 78.61 °W | Updated 8 seconds ago

Clear
Clear
24.6 °F
Feels Like 25 °F
N
0.0
Wind Variable Wind from North
Gusts 0.0 mph

Today
High -- | Low -- °F
--% Chance of Precip.
Yesterday
High -- | Low -- °F
Precip. -- in
Pressure 30.20 in
Visibility 10.0 miles
Clouds Clear
Windchill 25 °F
Dew Point 20 °F
Humidity 82%
Rainfall 0.00 in
Snow Depth Not available.
7:14 AM 5:43 PM
Waning Crescent, 2% visible
METAR KSHD 070855Z AUTO 00000KT 10SM CLR M03/M05 A3020 RMK AO2 T10261048
Pressure 30.20 in
Visibility 10.0 miles
Clouds Clear
Windchill 25 °F
Dew Point 20 °F
Humidity 82%
Rainfall 0.00 in
Snow Depth Not available.
7:14 AM 5:43 PM
Waning Crescent, 2% visible
METAR KSHD 070855Z AUTO 00000KT 10SM CLR M03/M05 A3020 RMK AO2 T10261048

10-Day Weather Forecast

Almanac

Astronomy

Feb. 07, 2016 Rise Set
Actual Time
Civil Twilight
Nautical Twilight
Astronomical Twilight
Moon
Length of Visible Light
Length of Day
Tomorrow will be .
, % of the Moon is Illuminated

Today's Extremes

State Highs State Lows

Community

WunderPhotos

Upload Photos

1,891,171 photos uploaded!

WunderBlog® & News

Nearby

Air Quality

  Air Quality AQ Index Pollutant
Not available.

Snow Depth

Station Depth Elevation

Earthquake Activity

City Distance Mag. Time & Date
Minimum magnitude displayed is 2.5.

Coastal Water Temperatures

Place Temperature

Stations

Nearby Weather Stations

Station Location Temp. Windchill Dew Point Humidity Wind Precip. Elev Updated Type
                   

Watches & Warnings

There are currently no watches in effect.